SCP
0 0 0 0 0 0 0 0 0 0 0 0 0 0 0 0 0 0 0 0 0 0 0 0 0 0 0 0 0 0 0 0 0 0 0 0 0 0 0 0 0 0 0
0 0 0 0 0 0 0 0 0 0 0 0 0 0 0 0 0 0 0 0 0 0 0 0 0 0 0 0 0 0 0 0 0 0 0 0 0 0 0 0 0 0 0
0 0 0 0 0 0 0 0 0 0 0 0 0 0 0 0 0 0 0 0 0 0 0 0 0 0 0 0 0 0 0 0 0 0 0 0 0 0 0 0 0 0 0
0 0 0 0 0 0 0 0 0 0 0 0 0 0 0 0 0 0 0 0 0 0 0 0 0 0 0 0 0 0 0 0 0 0 0 0 0 0 0 0 0 0 0
0 0 0 0 0 0 0 0 0 0 0 0 0 0 0 0 0 0 0 0 0 0 0 0 0 0 0 0 0 0 0 0 0 0 0 0 0 0 0 0 0 0 0
0 0 0 0 0 0 0 0 0 0 0 0 0 0 0 0 0 0 0 0 0 0 0 0 0 0 0 0 0 0 0 0 0 0 0 0 0 0 0 0 0 0 0
0 0 0 0 0 0 0 0 0 0 0 0 0 0 0 0 0 0 0 0 0 0 0 0 0 0 0 0 0 0 0 0 0 0 0 0 0 0 0 0 0 0 0
0 0 0 0 0 0 0 0 0 0 0 0 0 0 0 0 0 0 0 0 0 0 0 0 0 0 0 0 0 0 0 0 0 0 0 0 0 0 0 0 0 0 0
0 0 0 0 0 0 0 0 0 0 0 0 0 0 0 0 0 0 0 0 0 0 0 0 0 0 0 0 0 0 0 0 0 0 0 0 0 0 0 0 0 0 0
0 0 0 0 0 0 0 0 0 0 0 0 0 0 0 0 0 0 0 0 0 0 0 0 0 0 0 0 0 0 0 0 0 0 0 0 0 0 0 0 0 0 0
0 0 0 0 0 0 0 0 0 0 0 0 0 0 0 0 0 0 0 0 0 0 0 0 0 0 0 0 0 0 0 0 0 0 0 0 0 0 0 0 0 0 0
0 0 0 0 0 0 0 0 0 0 0 0 0 0 0 0 0 0 0 0 0 0 0 0 0 0 0 0 0 0 0 0 0 0 0 0 0 0 0 0 0 0 0
0 0 0 0 0 0 0 0 0 0 0 0 0 0 0 0 0 0 0 0 0 0 0 0 0 0 0 0 0 0 0 0 0 0 0 0 0 0 0 0 0 0 0
0 0 0 0 0 0 0 0 0 0 0 0 0 0 0 0 0 0 0 0 0 0 0 0 0 0 0 0 0 0 0 0 0 0 0 0 0 0 0 0 0 0 0
0 0 0 0 0 0 0 0 0 0 0 0 0 0 0 0 0 0 0 0 0 0 0 0 0 0 0 0 0 0 0 0 0 0 0 0 0 0 0 0 0 0 0
0 0 0 0 0 0 0 0 0 0 0 0 0 0 0 0 0 0 0 0 0 0 0 0 0 0 0 0 0 0 0 0 0 0 0 0 0 0 0 0 0 0 0
0 0 0 0 0 0 0 0 0 0 0 0 0 0 0 0 0 0 0 0 0 0 0 0 0 0 0 0 0 0 0 0 0 0 0 0 0 0 0 0 -0 -0 -0
0 0 0 0 0 0 0 0 0 0 0 0 0 0 0 0 0 0 0 0 0 0 0 0 0 0 0 0 0 0 0 0 0 0 0 0 -0 0 0 0 -0 0 0
0 0 0 0 0 0 0 0 0 0 0 0 0 0 0 0 0 0 0 0 0 0 0 0 0 0 0 0 0 0 0 0 0 0 0 0 0 0 0 0 -0 -0 0
0 0 0 0 0 0 0 0 0 0 0 0 0 0 0 0 0 0 0 0 0 0 0 0 0 0 0 0 0 0 0 0 0 0 0 0 0 0 0 0 0 0 0
0 0 0 0 0 0 0 0 0 0 0 0 0 0 0 0 0 0 0 0 0 0 0 0 0 0 0 0 0 0 0 0 0 0 0 0 0 0 0 0 0 0 0
0 0 0 0 0 0 0 0 0 0 0 0 0 0 0 0 0 0 0 0 0 0 0 0 0 0 0 0 0 0 0 0 0 0 0 0 0 0 0 0 0 0 -0
-0 0 0 0 0 0 0 0 0 0 0 0 0 0 0 0 0 0 0 0 0 0 0 0 0 0 0 0 0 0 0 0 0 0 0 0 0 0 0 0 0 -0 -0
-0 0 0 0 0 0 0 0 0 0 0 0 0 0 0 0 0 0 0 0 0 0 0 0 0 0 0 0 0 0 0 0 0 0 0 0 0 0 0 0 0 -0 -0
0 -0 0 0 0 0 0 0 0 0 0 0 0 0 0 0 0 0 0 0 0 0 0 0 0 0 0 0 0 0 0 0 0 0 0 0 0 0 0 0 0 0 0
0 0 -0 0 0 0 0 0 0 0 0 0 0 0 0 0 0 0 0 0 0 0 0 0 0 0 0 0 0 0 0 0 0 0 0 0 0 0 0 0 0 0 0
Wind_Speed_500mb
57 54 53 52 51 47 42 38 34 29 24 20 16 13 10 9 8 7 7 7 8 11 14 16 5 8 14 21 17 18 25 25 23 20 19 18 21 22 25 26 29 33 37
64 61 59 58 57 53 48 43 38 33 28 23 19 15 12 10 9 8 8 7 9 14 14 10 11 18 9 20 18 18 19 22 17 16 15 16 18 20 23 26 27 28 31
72 68 66 65 62 59 54 49 44 37 32 27 23 19 15 13 12 11 10 9 11 14 16 12 24 17 15 20 12 7 10 17 12 14 14 15 16 18 19 21 23 24 27
79 75 75 72 68 65 60 56 51 46 40 33 27 23 19 17 15 14 14 14 16 17 18 25 35 29 21 13 11 7 15 16 15 15 16 16 18 20 20 20 23 25 26
86 84 82 77 74 72 69 64 57 51 45 39 33 27 24 21 19 18 18 20 19 21 21 21 20 19 19 15 13 16 20 22 20 20 20 22 23 24 25 26 28 29 29
94 92 89 86 83 81 78 72 64 58 50 46 39 33 29 26 25 23 23 23 22 22 22 20 18 16 15 18 20 22 22 23 24 23 23 24 25 28 30 31 32 33 36
102 101 99 95 92 90 84 77 73 66 62 53 43 38 36 35 34 33 31 31 30 29 26 22 19 18 17 17 19 21 22 23 23 23 23 24 25 26 29 32 34 36 37
112 110 106 104 100 97 93 88 85 78 72 64 55 40 25 35 41 41 39 38 36 33 30 25 20 18 17 17 18 20 20 20 20 21 22 24 25 26 28 29 31 34 37
120 115 111 109 107 104 102 97 92 87 80 75 71 41 18 20 38 48 47 45 41 39 35 28 21 18 18 19 20 18 17 16 18 22 24 27 29 30 32 34 35 37 38
126 122 118 115 113 110 108 102 96 93 90 85 78 75 45 28 20 20 48 51 50 47 42 34 26 22 21 20 21 17 17 18 23 24 25 27 28 30 32 34 37 38 39
113 126 127 123 122 119 113 109 105 103 98 93 88 85 76 54 41 25 23 49 56 55 53 41 34 28 26 24 22 18 19 21 23 24 26 27 27 26 28 31 32 33 35
98 106 122 125 126 123 119 118 112 106 103 100 93 88 84 78 70 58 38 37 45 54 57 46 41 36 33 31 26 22 21 22 24 24 24 22 23 26 29 30 31 32 33
91 94 98 120 133 130 124 119 119 111 107 105 101 93 85 79 71 63 58 52 46 45 49 50 48 43 39 36 31 24 23 24 24 25 25 24 26 28 28 28 28 30 32
80 81 88 95 127 132 128 125 123 117 111 109 105 99 90 83 75 70 65 63 46 48 51 47 51 48 43 39 32 28 26 25 27 30 32 33 32 29 27 27 27 29 32
71 73 79 85 96 126 132 130 127 124 119 112 109 104 95 89 81 75 69 64 62 52 59 57 48 50 45 41 36 32 27 27 30 34 37 36 31 27 24 24 24 24 25
70 69 70 78 88 102 127 133 131 128 124 116 113 106 104 97 89 82 76 70 67 63 53 59 56 50 47 45 38 33 28 27 29 35 37 32 28 23 21 22 24 27 31
63 68 71 71 79 92 104 128 134 132 127 120 115 113 108 103 96 89 83 77 74 70 65 55 53 51 48 45 40 34 29 26 31 34 35 30 28 24 24 24 25 27 31
61 64 69 72 77 85 91 106 127 135 130 126 122 116 112 107 102 95 88 82 79 74 71 65 57 53 48 44 39 32 30 28 32 35 35 30 23 22 24 24 25 26 29
53 62 67 71 79 82 85 94 102 127 130 128 126 123 115 112 110 103 95 87 83 79 74 68 62 57 52 47 41 35 34 31 35 35 31 29 25 24 24 24 26 29 33
55 59 66 63 76 79 85 89 97 107 123 127 127 120 118 120 117 113 103 94 91 85 79 74 69 64 58 54 48 43 39 37 41 38 32 31 25 24 17 15 18 25 32
59 55 67 62 65 77 85 89 99 103 106 118 128 127 123 121 118 111 103 100 97 93 86 81 78 72 67 62 54 47 42 40 43 41 32 34 28 26 18 15 18 22 24
68 62 60 63 67 74 79 83 93 103 101 107 123 125 122 121 116 111 105 103 99 97 95 88 82 77 72 64 56 50 43 40 38 39 31 33 31 26 21 19 23 20 25
72 69 69 59 66 73 74 76 83 97 102 105 109 116 121 125 119 115 109 103 98 94 89 81 81 80 75 66 57 47 44 41 38 37 40 36 35 33 31 27 27 20 37
70 82 76 70 64 68 72 75 79 85 97 105 108 113 116 120 120 118 113 110 104 99 96 88 78 72 71 64 54 45 40 37 38 38 40 40 36 39 40 36 19 33 48
75 74 83 78 72 71 66 72 73 83 89 98 104 105 108 111 115 119 118 117 107 105 98 89 81 76 71 66 54 49 45 42 40 39 40 37 34 44 43 30 16 51 52
86 82 79 79 76 73 65 68 66 80 89 95 103 108 116 115 115 113 118 117 119 116 105 91 86 79 73 66 59 53 47 44 39 35 38 35 34 33 23 24 30 43 52
Wind_Direction_500mb
231 230 228 225 223 222 223 222 222 223 224 225 229 235 244 258 269 280 285 276 267 265 266 261 228 126 170 251 264 272 283 290 295 298 298 290 286 286 285 281 279 277 275
231 231 230 227 225 223 223 222 223 221 221 223 225 230 237 248 256 259 256 239 231 221 234 206 133 175 211 261 269 281 293 297 306 307 309 306 300 298 298 298 296 293 291
231 229 229 229 227 225 224 224 224 224 222 222 224 225 229 235 245 248 240 218 206 215 208 182 158 172 200 265 284 281 282 294 312 304 306 306 303 303 302 302 301 295 290
231 230 230 226 226 227 226 225 223 221 221 221 221 223 228 234 239 239 234 219 202 203 210 204 196 226 257 268 260 273 274 293 294 293 286 284 285 286 287 288 286 286 288
233 232 231 229 227 225 225 225 223 222 221 220 220 222 227 231 233 229 228 226 220 216 221 222 229 239 252 264 281 277 289 294 294 289 294 292 290 290 289 287 286 288 288
236 234 232 230 227 226 223 223 223 222 219 220 219 220 224 229 229 228 227 228 227 223 222 224 225 239 256 272 279 285 286 289 291 296 294 292 294 297 297 297 297 295 293
237 234 234 231 227 227 227 224 222 220 218 216 214 214 218 220 222 223 226 224 220 217 212 214 229 246 255 264 270 274 277 279 286 291 293 296 299 298 298 297 296 296 295
239 236 234 233 230 227 225 223 222 218 217 216 211 211 215 222 221 221 221 217 213 210 212 216 226 241 252 255 256 264 269 273 281 288 295 299 299 297 294 294 293 295 296
239 238 236 236 233 230 228 226 225 222 222 217 214 203 189 212 209 220 216 212 214 214 215 220 237 248 250 252 251 250 253 262 286 294 296 295 294 293 292 291 292 292 291
242 239 236 235 235 234 231 228 227 227 223 222 216 215 212 200 180 189 216 218 218 218 220 232 242 251 251 247 249 246 248 268 287 291 294 296 293 292 291 290 291 292 292
248 241 237 234 234 233 233 232 227 225 227 225 222 220 218 217 214 195 193 216 219 222 225 239 239 247 244 239 235 229 257 285 291 293 292 291 291 291 292 294 296 297 299
257 250 242 237 237 235 231 232 230 228 228 229 226 226 228 221 219 214 207 207 221 225 222 231 235 237 233 230 230 239 270 285 289 294 299 301 300 300 300 299 298 299 296
264 261 254 241 237 236 234 232 232 229 228 228 230 228 228 231 236 229 222 216 204 216 218 224 231 231 226 228 231 250 272 282 292 303 305 302 302 302 302 304 301 298 300
274 271 264 255 241 237 235 234 234 232 228 228 230 231 230 231 230 232 230 222 211 214 218 225 228 226 226 230 236 258 275 290 302 307 308 306 304 300 300 300 301 307 309
278 272 265 259 253 243 237 235 234 234 230 228 228 231 231 230 231 230 229 230 227 217 217 222 224 226 227 232 243 262 281 296 306 307 304 303 299 299 293 291 293 297 301
279 272 266 262 257 248 239 236 235 235 233 230 229 228 231 230 229 230 229 228 227 229 224 223 223 226 225 229 246 259 272 290 302 299 302 302 296 296 305 314 317 321 323
281 275 269 262 256 252 246 238 236 236 235 232 230 230 230 231 229 229 229 228 227 225 226 224 221 221 226 235 246 257 273 293 297 299 308 308 305 308 321 319 325 328 331
285 279 272 265 258 253 249 246 238 236 235 232 232 230 230 230 230 230 230 230 230 228 226 229 228 228 232 238 247 261 276 291 294 298 302 297 290 304 306 315 328 333 331
292 283 273 266 259 254 250 247 244 239 237 235 234 232 230 231 230 229 227 228 229 229 228 228 230 229 233 239 246 256 269 281 283 286 290 286 289 297 304 327 336 335 333
298 293 281 272 266 261 255 252 247 242 238 237 237 236 233 233 232 230 228 226 229 228 227 226 227 229 231 233 239 248 261 269 274 279 280 273 277 274 292 319 327 329 329
319 293 288 280 272 265 258 254 250 244 241 238 237 236 235 236 235 236 233 230 228 227 226 226 227 228 229 230 234 245 256 263 270 276 273 272 276 286 301 317 317 325 326
326 317 290 284 278 269 265 259 255 251 245 241 239 238 237 236 235 236 236 235 236 232 227 225 227 230 231 231 233 241 250 257 270 272 266 278 287 287 296 317 327 324 337
315 319 310 286 275 275 272 265 259 256 250 245 242 241 238 236 234 234 233 233 233 234 236 235 232 232 230 230 232 238 245 249 254 260 277 280 288 288 299 314 319 324 345
318 310 310 309 285 271 272 268 263 257 253 248 244 242 240 239 236 233 229 229 228 228 229 227 227 232 233 231 231 235 238 241 248 256 268 272 281 290 300 313 312 338 344
319 314 309 308 306 287 272 263 260 255 250 247 244 242 240 239 239 235 232 226 226 227 226 227 227 227 229 232 231 231 231 234 245 257 261 268 279 295 306 309 299 339 340
316 314 309 304 303 295 281 270 251 240 245 245 240 238 237 237 235 238 234 226 226 223 221 218 219 221 225 228 228 230 228 232 238 253 255 249 285 302 311 301 304 324 325
Wind_Speed_850mb
57 54 53 52 51 47 42 38 34 29 24 20 16 13 10 9 8 7 7 7 8 11 14 16 5 8 14 21 17 18 25 25 23 20 19 18 21 22 25 26 29 33 37
64 61 59 58 57 53 48 43 38 33 28 23 19 15 12 10 9 8 8 7 9 14 14 10 11 18 9 20 18 18 19 22 17 16 15 16 18 20 23 26 27 28 31
72 68 66 65 62 59 54 49 44 37 32 27 23 19 15 13 12 11 10 9 11 14 16 12 24 17 15 20 12 7 10 17 12 14 14 15 16 18 19 21 23 24 27
79 75 75 72 68 65 60 56 51 46 40 33 27 23 19 17 15 14 14 14 16 17 18 25 35 29 21 13 11 7 15 16 15 15 16 16 18 20 20 20 23 25 26
86 84 82 77 74 72 69 64 57 51 45 39 33 27 24 21 19 18 18 20 19 21 21 21 20 19 19 15 13 16 20 22 20 20 20 22 23 24 25 26 28 29 29
94 92 89 86 83 81 78 72 64 58 50 46 39 33 29 26 25 23 23 23 22 22 22 20 18 16 15 18 20 22 22 23 24 23 23 24 25 28 30 31 32 33 36
102 101 99 95 92 90 84 77 73 66 62 53 43 38 36 35 34 33 31 31 30 29 26 22 19 18 17 17 19 21 22 23 23 23 23 24 25 26 29 32 34 36 37
112 110 106 104 100 97 93 88 85 78 72 64 55 40 25 35 41 41 39 38 36 33 30 25 20 18 17 17 18 20 20 20 20 21 22 24 25 26 28 29 31 34 37
120 115 111 109 107 104 102 97 92 87 80 75 71 41 18 20 38 48 47 45 41 39 35 28 21 18 18 19 20 18 17 16 18 22 24 27 29 30 32 34 35 37 38
126 122 118 115 113 110 108 102 96 93 90 85 78 75 45 28 20 20 48 51 50 47 42 34 26 22 21 20 21 17 17 18 23 24 25 27 28 30 32 34 37 38 39
113 126 127 123 122 119 113 109 105 103 98 93 88 85 76 54 41 25 23 49 56 55 53 41 34 28 26 24 22 18 19 21 23 24 26 27 27 26 28 31 32 33 35
98 106 122 125 126 123 119 118 112 106 103 100 93 88 84 78 70 58 38 37 45 54 57 46 41 36 33 31 26 22 21 22 24 24 24 22 23 26 29 30 31 32 33
91 94 98 120 133 130 124 119 119 111 107 105 101 93 85 79 71 63 58 52 46 45 49 50 48 43 39 36 31 24 23 24 24 25 25 24 26 28 28 28 28 30 32
80 81 88 95 127 132 128 125 123 117 111 109 105 99 90 83 75 70 65 63 46 48 51 47 51 48 43 39 32 28 26 25 27 30 32 33 32 29 27 27 27 29 32
71 73 79 85 96 126 132 130 127 124 119 112 109 104 95 89 81 75 69 64 62 52 59 57 48 50 45 41 36 32 27 27 30 34 37 36 31 27 24 24 24 24 25
70 69 70 78 88 102 127 133 131 128 124 116 113 106 104 97 89 82 76 70 67 63 53 59 56 50 47 45 38 33 28 27 29 35 37 32 28 23 21 22 24 27 31
63 68 71 71 79 92 104 128 134 132 127 120 115 113 108 103 96 89 83 77 74 70 65 55 53 51 48 45 40 34 29 26 31 34 35 30 28 24 24 24 25 27 31
61 64 69 72 77 85 91 106 127 135 130 126 122 116 112 107 102 95 88 82 79 74 71 65 57 53 48 44 39 32 30 28 32 35 35 30 23 22 24 24 25 26 29
53 62 67 71 79 82 85 94 102 127 130 128 126 123 115 112 110 103 95 87 83 79 74 68 62 57 52 47 41 35 34 31 35 35 31 29 25 24 24 24 26 29 33
55 59 66 63 76 79 85 89 97 107 123 127 127 120 118 120 117 113 103 94 91 85 79 74 69 64 58 54 48 43 39 37 41 38 32 31 25 24 17 15 18 25 32
59 55 67 62 65 77 85 89 99 103 106 118 128 127 123 121 118 111 103 100 97 93 86 81 78 72 67 62 54 47 42 40 43 41 32 34 28 26 18 15 18 22 24
68 62 60 63 67 74 79 83 93 103 101 107 123 125 122 121 116 111 105 103 99 97 95 88 82 77 72 64 56 50 43 40 38 39 31 33 31 26 21 19 23 20 25
72 69 69 59 66 73 74 76 83 97 102 105 109 116 121 125 119 115 109 103 98 94 89 81 81 80 75 66 57 47 44 41 38 37 40 36 35 33 31 27 27 20 37
70 82 76 70 64 68 72 75 79 85 97 105 108 113 116 120 120 118 113 110 104 99 96 88 78 72 71 64 54 45 40 37 38 38 40 40 36 39 40 36 19 33 48
75 74 83 78 72 71 66 72 73 83 89 98 104 105 108 111 115 119 118 117 107 105 98 89 81 76 71 66 54 49 45 42 40 39 40 37 34 44 43 30 16 51 52
86 82 79 79 76 73 65 68 66 80 89 95 103 108 116 115 115 113 118 117 119 116 105 91 86 79 73 66 59 53 47 44 39 35 38 35 34 33 23 24 30 43 52
Wind_Direction_850mb
231 230 228 225 223 222 223 222 222 223 224 225 229 235 244 258 269 280 285 276 267 265 266 261 228 126 170 251 264 272 283 290 295 298 298 290 286 286 285 281 279 277 275
231 231 230 227 225 223 223 222 223 221 221 223 225 230 237 248 256 259 256 239 231 221 234 206 133 175 211 261 269 281 293 297 306 307 309 306 300 298 298 298 296 293 291
231 229 229 229 227 225 224 224 224 224 222 222 224 225 229 235 245 248 240 218 206 215 208 182 158 172 200 265 284 281 282 294 312 304 306 306 303 303 302 302 301 295 290
231 230 230 226 226 227 226 225 223 221 221 221 221 223 228 234 239 239 234 219 202 203 210 204 196 226 257 268 260 273 274 293 294 293 286 284 285 286 287 288 286 286 288
233 232 231 229 227 225 225 225 223 222 221 220 220 222 227 231 233 229 228 226 220 216 221 222 229 239 252 264 281 277 289 294 294 289 294 292 290 290 289 287 286 288 288
236 234 232 230 227 226 223 223 223 222 219 220 219 220 224 229 229 228 227 228 227 223 222 224 225 239 256 272 279 285 286 289 291 296 294 292 294 297 297 297 297 295 293
237 234 234 231 227 227 227 224 222 220 218 216 214 214 218 220 222 223 226 224 220 217 212 214 229 246 255 264 270 274 277 279 286 291 293 296 299 298 298 297 296 296 295
239 236 234 233 230 227 225 223 222 218 217 216 211 211 215 222 221 221 221 217 213 210 212 216 226 241 252 255 256 264 269 273 281 288 295 299 299 297 294 294 293 295 296
239 238 236 236 233 230 228 226 225 222 222 217 214 203 189 212 209 220 216 212 214 214 215 220 237 248 250 252 251 250 253 262 286 294 296 295 294 293 292 291 292 292 291
242 239 236 235 235 234 231 228 227 227 223 222 216 215 212 200 180 189 216 218 218 218 220 232 242 251 251 247 249 246 248 268 287 291 294 296 293 292 291 290 291 292 292
248 241 237 234 234 233 233 232 227 225 227 225 222 220 218 217 214 195 193 216 219 222 225 239 239 247 244 239 235 229 257 285 291 293 292 291 291 291 292 294 296 297 299
257 250 242 237 237 235 231 232 230 228 228 229 226 226 228 221 219 214 207 207 221 225 222 231 235 237 233 230 230 239 270 285 289 294 299 301 300 300 300 299 298 299 296
264 261 254 241 237 236 234 232 232 229 228 228 230 228 228 231 236 229 222 216 204 216 218 224 231 231 226 228 231 250 272 282 292 303 305 302 302 302 302 304 301 298 300
274 271 264 255 241 237 235 234 234 232 228 228 230 231 230 231 230 232 230 222 211 214 218 225 228 226 226 230 236 258 275 290 302 307 308 306 304 300 300 300 301 307 309
278 272 265 259 253 243 237 235 234 234 230 228 228 231 231 230 231 230 229 230 227 217 217 222 224 226 227 232 243 262 281 296 306 307 304 303 299 299 293 291 293 297 301
279 272 266 262 257 248 239 236 235 235 233 230 229 228 231 230 229 230 229 228 227 229 224 223 223 226 225 229 246 259 272 290 302 299 302 302 296 296 305 314 317 321 323
281 275 269 262 256 252 246 238 236 236 235 232 230 230 230 231 229 229 229 228 227 225 226 224 221 221 226 235 246 257 273 293 297 299 308 308 305 308 321 319 325 328 331
285 279 272 265 258 253 249 246 238 236 235 232 232 230 230 230 230 230 230 230 230 228 226 229 228 228 232 238 247 261 276 291 294 298 302 297 290 304 306 315 328 333 331
292 283 273 266 259 254 250 247 244 239 237 235 234 232 230 231 230 229 227 228 229 229 228 228 230 229 233 239 246 256 269 281 283 286 290 286 289 297 304 327 336 335 333
298 293 281 272 266 261 255 252 247 242 238 237 237 236 233 233 232 230 228 226 229 228 227 226 227 229 231 233 239 248 261 269 274 279 280 273 277 274 292 319 327 329 329
319 293 288 280 272 265 258 254 250 244 241 238 237 236 235 236 235 236 233 230 228 227 226 226 227 228 229 230 234 245 256 263 270 276 273 272 276 286 301 317 317 325 326
326 317 290 284 278 269 265 259 255 251 245 241 239 238 237 236 235 236 236 235 236 232 227 225 227 230 231 231 233 241 250 257 270 272 266 278 287 287 296 317 327 324 337
315 319 310 286 275 275 272 265 259 256 250 245 242 241 238 236 234 234 233 233 233 234 236 235 232 232 230 230 232 238 245 249 254 260 277 280 288 288 299 314 319 324 345
318 310 310 309 285 271 272 268 263 257 253 248 244 242 240 239 236 233 229 229 228 228 229 227 227 232 233 231 231 235 238 241 248 256 268 272 281 290 300 313 312 338 344
319 314 309 308 306 287 272 263 260 255 250 247 244 242 240 239 239 235 232 226 226 227 226 227 227 227 229 232 231 231 231 234 245 257 261 268 279 295 306 309 299 339 340
316 314 309 304 303 295 281 270 251 240 245 245 240 238 237 237 235 238 234 226 226 223 221 218 219 221 225 228 228 230 228 232 238 253 255 249 285 302 311 301 304 324 325